"Period start","avg(HW err(1)/warn(2) (#))","avg(Visibility (m))","avg(Weather code (#))","avg(Precip intensity (mm/h))","min(HW err(1)/warn(2) (#))","max(HW err(1)/warn(2) (#))","std(HW err(1)/warn(2) (#))","med(HW err(1)/warn(2) (#))","min(Visibility (m))","max(Visibility (m))","std(Visibility (m))","med(Visibility (m))","min(Weather code (#))","max(Weather code (#))","std(Weather code (#))","med(Weather code (#))","min(Precip intensity (mm/h))","max(Precip intensity (mm/h))","std(Precip intensity (mm/h))","med(Precip intensity (mm/h))"
2016-08-16 00:00:00,2,28854,0,0.00,2,2,0,2,22549,36433,4148,29308,0,0,0,0,0.00,0.00,0.00,0.00
2016-08-16 00:10:00,2,33072,0,0.00,2,2,0,2,27260,37344,3401,32064,0,0,0,0,0.00,0.00,0.00,0.00
2016-08-16 00:20:00,2,34745,0,0.00,2,2,0,2,28930,41187,4260,33417,0,0,0,0,0.00,0.00,0.00,0.00
2016-08-16 00:30:00,2,28905,0,0.00,2,2,0,2,19878,38606,5579,28600,0,0,0,0,0.00,0.00,0.00,0.00
2016-08-16 00:40:00,2,28168,0,0.00,2,2,0,2,21630,34349,4204,28540,0,0,0,0,0.00,0.00,0.00,0.00
2016-08-16 00:50:00,2,28604,0,0.00,2,2,0,2,24826,32287,2228,28192,0,0,0,0,0.00,0.00,0.00,0.00
2016-08-16 01:00:00,2,32027,0,0.00,2,2,0,2,27727,39487,3411,31718,0,0,0,0,0.00,0.00,0.00,0.00
2016-08-16 01:10:00,2,39080,0,0.00,2,2,0,2,28136,47840,6033,40770,0,0,0,0,0.00,0.00,0.00,0.00
2016-08-16 01:20:00,2,33374,0,0.00,2,2,0,2,28608,41522,3891,32958,0,0,0,0,0.00,0.00,0.00,0.00
2016-08-16 01:30:00,2,30808,0,0.00,2,2,0,2,24637,38772,4702,30018,0,0,0,0,0.00,0.00,0.00,0.00
2016-08-16 01:40:00,2,24665,0,0.00,2,2,0,2,17557,32148,4567,25001,0,0,0,0,0.00,0.00,0.00,0.00
2016-08-16 01:50:00,2,15986,0,0.00,2,2,0,2,10601,24155,3785,15832,0,0,0,0,0.00,0.00,0.00,0.00
2016-08-16 02:00:00,2,10901,0,0.00,2,2,0,2,8138,20204,3331,9918,0,0,0,0,0.00,0.00,0.00,0.00
2016-08-16 02:10:00,2,15844,0,0.00,2,2,0,2,12327,18744,2256,16186,0,0,0,0,0.00,0.00,0.00,0.00
2016-08-16 02:20:00,2,30039,0,0.00,2,2,0,2,18074,40791,7298,28906,0,0,0,0,0.00,0.00,0.00,0.00
2016-08-16 02:30:00,2,35446,0,0.00,2,2,0,2,26799,40741,4092,37600,0,0,0,0,0.00,0.00,0.00,0.00
2016-08-16 02:40:00,2,33187,0,0.00,2,2,0,2,20426,44434,7206,33347,0,0,0,0,0.00,0.00,0.00,0.00
2016-08-16 02:50:00,2,9849,1,0.00,2,2,0,2,5312,17708,4312,7982,0,10,3,0,0.00,0.00,0.00,0.00
2016-08-16 03:00:00,2,10772,10,0.00,2,2,0,2,6411,15265,3287,10552,10,10,0,10,0.00,0.00,0.00,0.00
2016-08-16 03:10:00,2,14215,8,0.00,2,2,0,2,7632,25648,5975,12958,0,10,4,10,0.00,0.00,0.00,0.00
2016-08-16 03:20:00,2,16066,0,0.00,2,2,0,2,8969,29949,5752,14358,0,0,0,0,0.00,0.00,0.00,0.00
2016-08-16 03:30:00,2,12789,0,0.00,2,2,0,2,4530,34400,9114,9176,0,0,0,0,0.00,0.00,0.00,0.00
2016-08-16 03:40:00,2,9108,2,0.00,2,2,0,2,4550,16443,3808,8416,0,10,4,0,0.00,0.00,0.00,0.00
2016-08-16 03:50:00,2,10656,10,0.00,2,2,0,2,5991,20084,3894,9920,10,10,0,10,0.00,0.00,0.00,0.00
2016-08-16 04:00:00,2,29026,4,0.00,2,2,0,2,12617,44958,9315,28503,0,10,5,0,0.00,0.00,0.00,0.00
2016-08-16 04:10:00,2,37295,0,0.00,2,2,0,2,26065,45772,6796,41351,0,0,0,0,0.00,0.00,0.00,0.00
2016-08-16 04:20:00,2,32311,0,0.00,2,2,0,2,10278,46691,10581,32978,0,0,0,0,0.00,0.00,0.00,0.00
2016-08-16 04:30:00,2,12457,0,0.00,2,2,0,2,6736,21622,3944,12395,0,0,0,0,0.00,0.00,0.00,0.00
2016-08-16 04:40:00,2,9208,8,0.00,2,2,0,2,3895,16923,3974,8043,0,10,4,10,0.00,0.00,0.00,0.00
2016-08-16 04:50:00,2,20801,7,0.00,2,2,0,2,13933,34287,6905,17401,0,10,5,10,0.00,0.00,0.00,0.00
2016-08-16 05:00:00,2,40736,0,0.00,2,2,0,2,25278,50000,8808,42774,0,0,0,0,0.00,0.00,0.00,0.00
2016-08-16 05:10:00,2,38182,0,0.00,2,2,0,2,12157,50000,15982,48270,0,0,0,0,0.00,0.00,0.00,0.00
2016-08-16 05:20:00,2,33918,0,0.00,2,2,0,2,15030,50000,10989,34713,0,0,0,0,0.00,0.00,0.00,0.00
2016-08-16 05:30:00,2,48626,0,0.00,2,2,0,2,43561,50000,2228,50000,0,0,0,0,0.00,0.00,0.00,0.00
2016-08-16 05:40:00,2,44896,0,0.00,2,2,0,2,35954,50000,4850,45463,0,0,0,0,0.00,0.00,0.00,0.00
2016-08-16 05:50:00,2,49009,0,0.00,2,2,0,2,44991,50000,1962,50000,0,0,0,0,0.00,0.00,0.00,0.00
2016-08-16 06:00:00,2,47741,0,0.00,2,2,0,2,43795,50000,2240,48542,0,0,0,0,0.00,0.00,0.00,0.00
2016-08-16 06:10:00,2,46894,0,0.00,2,2,0,2,42914,50000,2803,46844,0,0,0,0,0.00,0.00,0.00,0.00
2016-08-16 06:20:00,2,47276,0,0.00,2,2,0,2,42080,50000,3112,48562,0,0,0,0,0.00,0.00,0.00,0.00
2016-08-16 06:30:00,2,49459,0,0.00,2,2,0,2,46614,50000,1119,50000,0,0,0,0,0.00,0.00,0.00,0.00
2016-08-16 06:40:00,2,44464,0,0.00,2,2,0,2,34679,50000,5050,45802,0,0,0,0,0.00,0.00,0.00,0.00
2016-08-16 06:50:00,2,45861,0,0.00,2,2,0,2,35498,50000,4182,46945,0,0,0,0,0.00,0.00,0.00,0.00
2016-08-16 07:00:00,2,49050,0,0.00,2,2,0,2,46216,50000,1121,49180,0,0,0,0,0.00,0.00,0.00,0.00
2016-08-16 07:10:00,2,48863,0,0.00,2,2,0,2,43188,50000,2135,50000,0,0,0,0,0.00,0.00,0.00,0.00
2016-08-16 07:20:00,2,43975,0,0.00,2,2,0,2,31972,50000,6549,46354,0,0,0,0,0.00,0.00,0.00,0.00
2016-08-16 07:30:00,2,48773,0,0.00,2,2,0,2,43457,50000,2400,50000,0,0,0,0,0.00,0.00,0.00,0.00
2016-08-16 07:40:00,2,48024,0,0.00,2,2,0,2,41008,50000,3218,50000,0,0,0,0,0.00,0.00,0.00,0.00
2016-08-16 07:50:00,1,48409,0,0.00,0,2,1,1,44248,50000,1911,49227,0,0,0,0,0.00,0.00,0.00,0.00
2016-08-16 08:00:00,2,49269,0,0.00,2,2,0,2,46308,50000,1096,49768,0,0,0,0,0.00,0.00,0.00,0.00
2016-08-16 08:10:00,2,45989,0,0.00,2,2,0,2,40605,50000,4009,46724,0,0,0,0,0.00,0.00,0.00,0.00
2016-08-16 08:20:00,2,49203,0,0.00,2,2,0,2,45776,50000,1274,50000,0,0,0,0,0.00,0.00,0.00,0.00
2016-08-16 08:30:00,2,50000,0,0.00,2,2,0,2,50000,50000,0,50000,0,0,0,0,0.00,0.00,0.00,0.00
2016-08-16 08:40:00,2,49959,0,0.00,2,2,0,2,49588,50000,124,50000,0,0,0,0,0.00,0.00,0.00,0.00
2016-08-16 08:50:00,2,48576,0,0.00,2,2,0,2,45379,50000,1548,49040,0,0,0,0,0.00,0.00,0.00,0.00
2016-08-16 09:00:00,2,49202,0,0.00,2,2,0,2,44068,50000,1796,50000,0,0,0,0,0.00,0.00,0.00,0.00
2016-08-16 09:10:00,2,49870,0,0.00,2,2,0,2,48703,50000,389,50000,0,0,0,0,0.00,0.00,0.00,0.00
2016-08-16 09:20:00,2,49907,0,0.00,2,2,0,2,49069,50000,279,50000,0,0,0,0,0.00,0.00,0.00,0.00
2016-08-16 09:30:00,2,49751,0,0.00,2,2,0,2,47513,50000,746,50000,0,0,0,0,0.00,0.00,0.00,0.00
2016-08-16 09:40:00,2,49892,0,0.00,2,2,0,2,48924,50000,323,50000,0,0,0,0,0.00,0.00,0.00,0.00
2016-08-16 09:50:00,2,50000,0,0.00,2,2,0,2,50000,50000,0,50000,0,0,0,0,0.00,0.00,0.00,0.00
2016-08-16 10:00:00,2,49665,0,0.00,2,2,0,2,46680,50000,995,50000,0,0,0,0,0.00,0.00,0.00,0.00
2016-08-16 10:10:00,2,50000,0,0.00,2,2,0,2,50000,50000,0,50000,0,0,0,0,0.00,0.00,0.00,0.00
2016-08-16 10:20:00,2,49858,0,0.00,2,2,0,2,48722,50000,381,50000,0,0,0,0,0.00,0.00,0.00,0.00
2016-08-16 10:30:00,2,49977,0,0.00,2,2,0,2,49769,50000,69,50000,0,0,0,0,0.00,0.00,0.00,0.00
2016-08-16 10:40:00,2,49305,0,0.00,2,2,0,2,44393,50000,1685,50000,0,0,0,0,0.00,0.00,0.00,0.00
2016-08-16 10:50:00,2,49754,0,0.00,2,2,0,2,47542,50000,737,50000,0,0,0,0,0.00,0.00,0.00,0.00
2016-08-16 11:00:00,2,50000,0,0.00,2,2,0,2,50000,50000,0,50000,0,0,0,0,0.00,0.00,0.00,0.00
2016-08-16 11:10:00,2,49928,0,0.00,2,2,0,2,49277,50000,217,50000,0,0,0,0,0.00,0.00,0.00,0.00
2016-08-16 11:20:00,2,50000,0,0.00,2,2,0,2,50000,50000,0,50000,0,0,0,0,0.00,0.00,0.00,0.00
2016-08-16 11:30:00,2,50000,0,0.00,2,2,0,2,50000,50000,0,50000,0,0,0,0,0.00,0.00,0.00,0.00
2016-08-16 11:40:00,2,50000,0,0.00,2,2,0,2,50000,50000,0,50000,0,0,0,0,0.00,0.00,0.00,0.00
2016-08-16 11:50:00,2,50000,0,0.00,2,2,0,2,50000,50000,0,50000,0,0,0,0,0.00,0.00,0.00,0.00
2016-08-16 12:00:00,2,49960,0,0.00,2,2,0,2,49597,50000,121,50000,0,0,0,0,0.00,0.00,0.00,0.00
2016-08-16 12:10:00,2,50000,0,0.00,2,2,0,2,50000,50000,0,50000,0,0,0,0,0.00,0.00,0.00,0.00
2016-08-16 12:20:00,2,50000,0,0.00,2,2,0,2,50000,50000,0,50000,0,0,0,0,0.00,0.00,0.00,0.00
2016-08-16 12:30:00,2,49824,0,0.00,2,2,0,2,48323,50000,501,50000,0,0,0,0,0.00,0.00,0.00,0.00
2016-08-16 12:40:00,2,50000,0,0.00,0,2,1,2,50000,50000,0,50000,0,0,0,0,0.00,0.00,0.00,0.00
2016-08-16 12:50:00,2,49988,0,0.00,2,2,0,2,49876,50000,37,50000,0,0,0,0,0.00,0.00,0.00,0.00
2016-08-16 13:00:00,2,50000,0,0.00,2,2,0,2,50000,50000,0,50000,0,0,0,0,0.00,0.00,0.00,0.00
2016-08-16 13:10:00,2,50000,0,0.00,2,2,0,2,50000,50000,0,50000,0,0,0,0,0.00,0.00,0.00,0.00
2016-08-16 13:20:00,2,50000,0,0.00,2,2,0,2,50000,50000,0,50000,0,0,0,0,0.00,0.00,0.00,0.00
2016-08-16 13:30:00,2,49972,0,0.00,2,2,0,2,49723,50000,83,50000,0,0,0,0,0.00,0.00,0.00,0.00
2016-08-16 13:40:00,2,50000,0,0.00,2,2,0,2,50000,50000,0,50000,0,0,0,0,0.00,0.00,0.00,0.00
2016-08-16 13:50:00,2,50000,0,0.00,2,2,0,2,50000,50000,0,50000,0,0,0,0,0.00,0.00,0.00,0.00
2016-08-16 14:00:00,2,49817,0,0.00,2,2,0,2,48173,50000,548,50000,0,0,0,0,0.00,0.00,0.00,0.00
2016-08-16 14:10:00,2,50000,0,0.00,2,2,0,2,50000,50000,0,50000,0,0,0,0,0.00,0.00,0.00,0.00
2016-08-16 14:20:00,2,50000,0,0.00,2,2,0,2,50000,50000,0,50000,0,0,0,0,0.00,0.00,0.00,0.00
2016-08-16 14:30:00,2,50000,0,0.00,2,2,0,2,50000,50000,0,50000,0,0,0,0,0.00,0.00,0.00,0.00
2016-08-16 14:40:00,2,50000,0,0.00,2,2,0,2,50000,50000,0,50000,0,0,0,0,0.00,0.00,0.00,0.00
2016-08-16 14:50:00,2,50000,0,0.00,2,2,0,2,50000,50000,0,50000,0,0,0,0,0.00,0.00,0.00,0.00
2016-08-16 15:00:00,2,50000,0,0.00,2,2,0,2,50000,50000,0,50000,0,0,0,0,0.00,0.00,0.00,0.00
2016-08-16 15:10:00,2,50000,0,0.00,2,2,0,2,50000,50000,0,50000,0,0,0,0,0.00,0.00,0.00,0.00
2016-08-16 15:20:00,2,50000,0,0.00,2,2,0,2,50000,50000,0,50000,0,0,0,0,0.00,0.00,0.00,0.00
2016-08-16 15:30:00,2,50000,0,0.00,2,2,0,2,50000,50000,0,50000,0,0,0,0,0.00,0.00,0.00,0.00
2016-08-16 15:40:00,2,48788,0,0.00,2,2,0,2,44086,50000,2219,50000,0,0,0,0,0.00,0.00,0.00,0.00
2016-08-16 15:50:00,1,45290,0,0.00,0,2,1,1,37652,50000,4634,46586,0,0,0,0,0.00,0.00,0.00,0.00
2016-08-16 16:00:00,0,50000,0,0.00,0,0,0,0,50000,50000,0,50000,0,0,0,0,0.00,0.00,0.00,0.00
2016-08-16 16:10:00,0,49822,0,0.00,0,0,0,0,48219,50000,534,50000,0,0,0,0,0.00,0.00,0.00,0.00
2016-08-16 16:20:00,0,50000,0,0.00,0,0,0,0,50000,50000,0,50000,0,0,0,0,0.00,0.00,0.00,0.00
2016-08-16 16:30:00,0,50000,0,0.00,0,0,0,0,50000,50000,0,50000,0,0,0,0,0.00,0.00,0.00,0.00
2016-08-16 16:40:00,0,50000,0,0.00,0,0,0,0,50000,50000,0,50000,0,0,0,0,0.00,0.00,0.00,0.00
2016-08-16 16:50:00,0,50000,0,0.00,0,0,0,0,50000,50000,0,50000,0,0,0,0,0.00,0.00,0.00,0.00
2016-08-16 17:00:00,0,50000,0,0.00,0,0,0,0,50000,50000,0,50000,0,0,0,0,0.00,0.00,0.00,0.00
2016-08-16 17:10:00,0,50000,0,0.00,0,0,0,0,50000,50000,0,50000,0,0,0,0,0.00,0.00,0.00,0.00
2016-08-16 17:20:00,0,50000,0,0.00,0,0,0,0,50000,50000,0,50000,0,0,0,0,0.00,0.00,0.00,0.00
2016-08-16 17:30:00,0,49986,0,0.00,0,0,0,0,49858,50000,43,50000,0,0,0,0,0.00,0.00,0.00,0.00
2016-08-16 17:40:00,0,50000,0,0.00,0,0,0,0,50000,50000,0,50000,0,0,0,0,0.00,0.00,0.00,0.00
2016-08-16 17:50:00,0,50000,0,0.00,0,0,0,0,50000,50000,0,50000,0,0,0,0,0.00,0.00,0.00,0.00
2016-08-16 18:00:00,0,50000,0,0.00,0,0,0,0,50000,50000,0,50000,0,0,0,0,0.00,0.00,0.00,0.00
2016-08-16 18:10:00,0,50000,0,0.00,0,0,0,0,50000,50000,0,50000,0,0,0,0,0.00,0.00,0.00,0.00
2016-08-16 18:20:00,0,50000,0,0.00,0,0,0,0,50000,50000,0,50000,0,0,0,0,0.00,0.00,0.00,0.00
2016-08-16 18:30:00,0,50000,0,0.00,0,0,0,0,50000,50000,0,50000,0,0,0,0,0.00,0.00,0.00,0.00
2016-08-16 18:40:00,0,50000,0,0.00,0,0,0,0,50000,50000,0,50000,0,0,0,0,0.00,0.00,0.00,0.00
2016-08-16 18:50:00,2,50000,0,0.00,0,2,1,2,50000,50000,0,50000,0,0,0,0,0.00,0.00,0.00,0.00
2016-08-16 19:00:00,1,49900,0,0.00,0,2,1,2,49424,50000,179,50000,0,0,0,0,0.00,0.00,0.00,0.00
2016-08-16 19:10:00,0,50000,0,0.00,0,0,0,0,50000,50000,0,50000,0,0,0,0,0.00,0.00,0.00,0.00
2016-08-16 19:20:00,0,50000,0,0.00,0,0,0,0,50000,50000,0,50000,0,0,0,0,0.00,0.00,0.00,0.00
2016-08-16 19:30:00,0,50000,0,0.00,0,0,0,0,50000,50000,0,50000,0,0,0,0,0.00,0.00,0.00,0.00
2016-08-16 19:40:00,0,50000,0,0.00,0,2,1,0,50000,50000,0,50000,0,0,0,0,0.00,0.00,0.00,0.00
2016-08-16 19:50:00,2,50000,0,0.00,0,2,1,2,50000,50000,0,50000,0,0,0,0,0.00,0.00,0.00,0.00
2016-08-16 20:00:00,0,50000,0,0.00,0,2,1,0,50000,50000,0,50000,0,0,0,0,0.00,0.00,0.00,0.00
2016-08-16 20:10:00,1,49852,0,0.00,0,2,1,2,48516,50000,445,50000,0,0,0,0,0.00,0.00,0.00,0.00
2016-08-16 20:20:00,2,49767,0,0.00,2,2,0,2,47674,50000,698,50000,0,0,0,0,0.00,0.00,0.00,0.00
2016-08-16 20:30:00,2,49768,0,0.00,0,2,1,2,47684,50000,695,50000,0,0,0,0,0.00,0.00,0.00,0.00
2016-08-16 20:40:00,0,49216,0,0.00,0,0,0,0,46474,50000,1174,49870,0,0,0,0,0.00,0.00,0.00,0.00
2016-08-16 20:50:00,0,49855,0,0.00,0,0,0,0,48549,50000,435,50000,0,0,0,0,0.00,0.00,0.00,0.00
2016-08-16 21:00:00,0,50000,0,0.00,0,0,0,0,50000,50000,0,50000,0,0,0,0,0.00,0.00,0.00,0.00
2016-08-16 21:10:00,0,49950,0,0.00,0,0,0,0,49513,50000,146,50000,0,0,0,0,0.00,0.00,0.00,0.00
2016-08-16 21:20:00,0,49012,0,0.00,0,0,0,0,43213,50000,2033,50000,0,0,0,0,0.00,0.00,0.00,0.00
2016-08-16 21:30:00,0,46021,0,0.00,0,0,0,0,32995,50000,5923,49390,0,0,0,0,0.00,0.00,0.00,0.00
2016-08-16 21:40:00,0,48682,0,0.00,0,0,0,0,41205,50000,2745,50000,0,0,0,0,0.00,0.00,0.00,0.00
2016-08-16 21:50:00,0,48467,0,0.00,0,0,0,0,40015,50000,2974,49698,0,0,0,0,0.00,0.00,0.00,0.00
2016-08-16 22:00:00,0,48941,0,0.00,0,2,1,0,42634,50000,2198,50000,0,0,0,0,0.00,0.00,0.00,0.00
2016-08-16 22:10:00,1,49560,0,0.00,0,2,1,0,45604,50000,1319,50000,0,0,0,0,0.00,0.00,0.00,0.00
2016-08-16 22:20:00,2,48802,0,0.00,2,2,0,2,44825,50000,1891,50000,0,0,0,0,0.00,0.00,0.00,0.00
2016-08-16 22:30:00,2,48840,0,0.00,2,2,0,2,42260,50000,2371,50000,0,0,0,0,0.00,0.00,0.00,0.00
2016-08-16 22:40:00,2,45464,0,0.00,2,2,0,2,38135,50000,4221,45104,0,0,0,0,0.00,0.00,0.00,0.00
2016-08-16 22:50:00,2,38160,0,0.00,2,2,0,2,25146,50000,7168,39218,0,0,0,0,0.00,0.00,0.00,0.00
2016-08-16 23:00:00,2,39998,0,0.00,0,2,1,2,29467,50000,5790,41003,0,0,0,0,0.00,0.00,0.00,0.00
2016-08-16 23:10:00,0,48812,0,0.00,0,0,0,0,42776,50000,2288,50000,0,0,0,0,0.00,0.00,0.00,0.00
2016-08-16 23:20:00,1,46621,0,0.00,0,2,1,1,33554,50000,5797,49916,0,0,0,0,0.00,0.00,0.00,0.00
2016-08-16 23:30:00,1,42275,0,0.00,0,2,1,0,25431,50000,7361,43684,0,0,0,0,0.00,0.00,0.00,0.00
2016-08-16 23:40:00,0,49029,0,0.00,0,0,0,0,45009,50000,1943,50000,0,0,0,0,0.00,0.00,0.00,0.00
2016-08-16 23:50:00,0,48712,0,0.00,0,0,0,0,42934,50000,2195,50000,0,0,0,0,0.00,0.00,0.00,0.00
